This is the latest recevied weather packets stored in our database for station/object NZ3C. If no packets are shown the sender has not sent any weather packets the latest 10 day(s).
| Time | Temp. | Humidity | Pressure | Rain* | Wind** | Luminosity | Snow |
|---|---|---|---|---|---|---|---|
| 1777728453 | 12.78° C | 93% | 1013.9 hPa | 0 mm | - | 178 W/m² | - |
| 1777728151 | 12.78° C | 92% | 1013.7 hPa | 1.27 mm | - | 153 W/m² | - |
| 1777727848 | 12.78° C | 93% | 1013.8 hPa | 1.27 mm | - | 186 W/m² | - |
| 1777727545 | 12.78° C | 93% | 1013.6 hPa | 0 mm | - | 178 W/m² | - |
| 1777727242 | 12.78° C | 93% | 1013.5 hPa | 0 mm | - | 131 W/m² | - |
| 1777726940 | 12.78° C | 93% | 1013.2 hPa | 0 mm | - | 143 W/m² | - |
| 1777726636 | 12.78° C | 92% | 1013.6 hPa | 0 mm | - | 155 W/m² | - |
| 1777726334 | 12.78° C | 92% | 1013.3 hPa | 0 mm | - | 118 W/m² | - |
| 1777726030 | 12.78° C | 93% | 1013.2 hPa | 0 mm | - | 140 W/m² | - |
| 1777725727 | 12.78° C | 93% | 1013.3 hPa | 0 mm | - | 133 W/m² | - |
| 1777725426 | 12.78° C | 93% | 1013.1 hPa | 0 mm | - | 148 W/m² | - |
| 1777725122 | 12.78° C | 94% | 1013.2 hPa | 1.78 mm | - | 108 W/m² | - |
| 1777724819 | 12.22° C | 94% | 1012.9 hPa | 0 mm | - | 112 W/m² | - |
| 1777724515 | 12.22° C | 95% | 1013.2 hPa | 0 mm | - | 84 W/m² | - |
| 1777724214 | 12.22° C | 96% | 1013.1 hPa | 0 mm | - | 80 W/m² | - |
| 1777723911 | 12.22° C | 96% | 1013.4 hPa | 1.78 mm | - | 67 W/m² | - |
| 1777723607 | 12.22° C | 96% | 1013.3 hPa | 1.78 mm | - | 56 W/m² | - |
| 1777723304 | 12.22° C | 96% | 1013.5 hPa | 0 mm | - | 74 W/m² | - |
| 1777723002 | 12.22° C | 97% | 1013.4 hPa | 0 mm | - | 76 W/m² | - |
| 1777722697 | 12.22° C | 97% | 1013.6 hPa | 0 mm | - | 58 W/m² | - |
| 1777722393 | 12.22° C | 97% | 1013.3 hPa | 0 mm | - | 43 W/m² | - |
| 1777722091 | 12.22° C | 97% | 1013.5 hPa | 0 mm | - | 35 W/m² | - |
| 1777721789 | 12.22° C | 97% | 1013.7 hPa | 0 mm | - | 26 W/m² | - |
| 1777721487 | 12.22° C | 97% | 1013.6 hPa | 0 mm | - | 30 W/m² | - |
| 1777721185 | 12.22° C | 97% | 1013.7 hPa | 0 mm | - | 23 W/m² | - |
* Rain latest hour (hover to see other rain measurements)
** Current wind speed in m/s (hover to see current wind gust speed)